Temperature
15 15 15 15 15 15 15 15 15 15 15 16 16 16 16 16 16 16 16 16 15 15 15 15 15 15 14 14 14 14 14 14 14 14 14 14 14 14
14 14 14 15 15 15 15 15 15 15 15 15 15 15 15 16 15 15 15 15 15 15 15 14 14 14 14 14 14 14 14 14 14 14 13 13 13 13
14 14 14 14 14 14 15 15 15 15 15 15 15 15 15 15 15 15 15 15 15 15 14 14 14 14 13 13 13 13 13 13 13 13 13 13 13 13
14 14 14 14 14 14 14 14 14 14 14 14 14 14 14 14 14 14 14 14 14 14 14 14 13 13 13 13 13 13 13 13 13 13 13 13 12 12
14 14 14 14 14 14 14 14 14 14 14 14 14 14 14 14 14 14 14 14 13 13 13 13 13 13 13 13 12 12 12 12 12 12 12 12 12 12
13 13 14 14 14 14 14 14 14 14 14 14 14 13 13 13 13 13 13 13 13 13 13 13 13 12 12 12 12 12 12 12 12 12 12 12 11 11
13 13 13 13 13 13 13 13 14 14 13 13 13 13 13 13 13 13 13 13 12 12 12 12 12 12 12 12 12 12 12 11 11 11 11 11 11 11
13 13 13 13 13 13 13 13 13 13 13 13 13 13 13 13 13 13 12 12 12 12 12 12 11 11 11 11 11 11 11 11 11 11 11 11 11 10
12 12 13 13 13 13 13 13 13 13 13 13 13 13 13 13 13 12 12 12 12 12 11 11 11 11 11 11 11 11 11 11 11 11 10 10 10 10
12 12 13 13 13 13 13 13 13 13 13 13 13 13 13 13 13 13 12 12 12 11 11 11 10 10 10 10 10 10 10 10 10 10 10 10 10 9
12 12 12 12 13 13 13 13 13 12 12 12 12 12 13 13 12 12 12 12 11 11 11 11 10 10 10 10 10 10 10 10 10 9 9 9 9 9
12 12 12 12 12 12 13 13 12 12 12 12 12 12 12 12 12 12 12 12 11 11 11 11 10 10 10 9 9 9 9 9 9 9 9 9 9 9
12 12 12 12 12 12 12 12 12 12 12 12 12 12 12 12 12 12 12 12 12 11 11 11 10 10 10 10 9 9 9 9 9 9 9 8 8 8
12 12 12 12 12 12 12 12 12 12 12 12 12 12 12 12 11 11 11 11 11 11 11 11 11 10 10 10 9 9 9 9 8 8 8 8 8 8
11 11 12 12 12 12 12 12 12 12 12 12 12 12 11 11 11 11 11 11 11 11 11 10 10 10 10 10 10 9 9 8 8 8 8 8 8 8
11 11 11 11 11 11 11 11 11 11 11 11 11 11 11 11 11 11 11 11 10 10 10 10 10 10 10 9 9 9 9 8 8 8 8 8 7 7
11 11 11 11 11 11 11 11 11 11 11 11 11 11 11 11 10 10 10 10 10 10 10 10 9 9 9 9 9 9 9 8 8 8 8 8 7 7
11 11 11 11 11 11 11 11 11 11 11 11 11 10 10 10 10 10 10 10 10 10 10 9 9 9 9 9 9 9 8 8 8 8 8 8 8 7
10 10 10 10 10 10 10 11 10 10 10 10 10 10 10 10 10 10 10 9 9 9 9 9 9 9 9 9 8 8 8 8 8 8 8 8 8 8
11 11 10 10 10 10 10 10 10 10 10 10 10 10 10 9 9 9 9 9 9 9 9 9 8 8 8 8 8 8 8 8 8 8 7 8 8 8
11 11 11 10 10 10 10 10 10 10 10 10 10 9 9 9 9 9 9 9 9 9 8 8 8 8 8 8 8 8 8 8 8 7 7 7 8 8
11 11 11 11 11 10 10 10 10 10 10 10 10 9 9 9 9 9 9 9 8 8 8 8 8 8 8 8 7 7 7 7 7 7 7 7 7 7
11 11 11 11 11 11 10 10 10 10 10 10 10 9 9 9 9 9 8 8 8 8 8 8 8 7 7 7 7 7 7 7 7 7 7 7 7 7
Wind_Speed
6 7 6 5 5 5 4 5 6 5 4 3 2 2 3 4 6 7 7 9 10 10 10 9 8 7 7 6 5 4 3 3 2 2 2 1 2 2
4 5 5 4 5 5 5 5 5 5 4 3 2 1 2 3 5 6 6 8 9 10 10 9 8 7 6 6 6 5 4 3 2 2 2 1 2 2
4 5 5 5 5 4 5 5 5 4 4 2 1 2 3 4 4 5 6 6 7 9 10 10 9 8 7 6 6 5 4 4 3 2 2 1 1 1
4 4 4 4 5 4 5 5 5 4 4 5 3 2 3 4 5 5 5 6 6 8 10 10 10 9 8 8 7 7 6 5 5 4 4 4 3 2
2 4 5 5 5 4 4 4 4 5 4 5 4 2 2 4 5 5 5 5 7 9 10 9 10 10 10 10 9 8 7 7 6 6 5 5 5 4
1 2 3 5 5 5 5 5 5 5 5 6 5 4 3 4 5 6 5 4 5 6 9 10 11 11 10 10 9 9 8 8 8 7 6 7 7 7
2 2 2 4 5 5 5 5 6 6 6 6 5 4 4 5 6 4 6 6 5 4 6 6 8 8 8 9 9 9 9 9 9 9 9 9 9 8
2 2 2 3 4 5 6 6 7 8 7 6 4 6 6 5 5 7 7 6 3 3 5 5 5 6 7 8 9 10 9 9 10 10 10 9 10 10
3 2 2 2 3 4 5 6 5 6 7 6 7 6 6 7 8 8 6 4 4 5 5 4 4 5 6 8 10 10 10 10 10 10 11 11 11 10
4 3 3 2 3 5 6 6 5 4 4 4 5 5 5 7 7 7 8 8 7 4 3 3 2 3 4 8 10 11 11 11 11 11 11 11 11 10
5 4 3 3 5 8 8 8 7 5 6 8 8 7 9 11 11 9 9 9 5 2 2 3 3 3 3 3 8 10 10 10 10 9 9 9 9 9
5 5 5 4 5 8 7 7 7 5 5 7 7 8 8 9 10 8 9 9 6 3 2 3 4 3 3 1 2 5 7 8 9 8 7 7 7 7
4 4 4 5 6 7 7 5 7 7 6 7 7 6 6 6 5 5 5 6 6 3 5 4 4 3 3 2 1 1 2 2 4 5 6 6 6 6
3 3 3 7 8 8 7 8 11 9 6 6 6 5 5 5 5 6 8 8 7 5 8 5 4 4 4 3 2 1 1 2 2 2 3 4 4 4
3 6 7 9 9 7 9 10 8 6 6 6 6 4 3 4 5 5 7 10 12 11 7 3 4 5 4 4 4 3 2 1 1 1 1 1 1 1
4 6 9 10 8 8 7 6 5 5 5 5 5 3 3 4 4 4 4 4 5 5 8 8 6 5 3 3 4 3 3 3 2 1 1 1 1 2
2 3 4 4 4 4 4 4 4 4 4 3 4 4 4 4 3 3 3 3 3 3 2 4 8 8 5 4 3 3 3 2 2 2 1 1 2 4
3 2 2 2 2 2 3 3 3 3 3 4 4 4 4 4 4 3 3 3 4 3 3 2 2 3 3 3 2 4 3 2 2 2 2 2 2 3
2 1 1 1 1 2 2 2 2 2 2 4 4 4 4 4 4 4 3 3 4 3 2 2 2 3 2 1 1 1 4 3 3 2 2 3 3 3
1 2 2 2 2 2 2 2 2 3 3 3 3 4 4 4 4 4 4 4 4 3 2 1 2 3 4 3 2 1 3 4 4 3 2 2 3 5
3 3 3 3 3 3 3 3 4 3 3 3 4 4 4 4 4 4 4 6 4 3 4 3 2 3 3 3 2 1 2 5 6 4 3 2 2 2
4 4 4 4 4 4 4 4 4 4 4 4 4 4 4 4 5 5 6 5 4 4 4 2 3 3 2 3 3 2 1 1 4 7 9 8 4 3
6 6 5 5 5 5 5 5 6 5 5 5 4 5 5 4 4 5 5 5 4 4 3 3 3 2 2 2 2 2 2 2 1 2 4 11 17 17
Wind_Direction
206 203 203 198 191 189 173 166 162 176 202 200 193 182 163 165 177 179 185 190 187 182 177 174 173 175 180 178 172 164 156 162 174 187 204 235 269 281
200 197 199 195 189 185 182 182 174 167 183 187 186 161 149 141 151 158 169 174 177 177 172 166 165 164 167 164 156 146 142 137 143 174 203 236 262 276
194 191 195 184 179 182 176 176 176 162 167 167 149 144 148 143 129 130 141 145 154 163 166 164 162 159 162 162 159 146 135 127 121 120 119 98 75 37
191 183 185 176 174 177 178 179 177 167 159 160 160 154 152 154 140 134 123 127 128 141 147 151 150 146 144 143 141 138 134 126 112 101 96 89 78 62
186 183 179 168 171 170 170 171 174 170 153 150 154 144 128 141 133 124 117 107 112 121 126 134 136 135 133 131 130 129 126 120 113 102 93 88 80 74
143 159 161 168 172 169 170 173 164 156 150 148 149 147 142 145 144 140 128 110 106 105 103 109 113 113 119 122 124 126 125 120 115 109 101 94 84 73
77 96 140 167 172 171 171 170 162 158 154 154 153 150 156 157 158 145 135 121 94 98 102 91 94 91 96 105 112 117 116 113 111 108 104 96 89 81
75 67 97 136 154 158 162 162 162 163 164 162 163 163 163 155 146 143 140 136 123 111 104 86 82 84 75 86 102 111 111 111 110 109 106 101 97 93
74 73 86 95 110 117 114 119 131 145 157 160 161 166 163 162 154 151 146 129 122 135 112 90 76 81 69 79 92 101 107 110 110 107 106 104 102 98
51 62 75 77 110 122 114 101 89 94 122 137 152 158 158 156 154 146 135 112 102 99 101 107 96 83 70 65 78 89 97 102 103 104 106 106 105 101
36 41 60 85 111 117 114 110 98 82 81 100 108 116 130 139 139 133 134 135 130 116 83 111 125 103 75 52 59 76 88 96 101 104 106 106 107 103
32 31 47 78 105 115 118 121 116 106 102 95 88 91 104 121 130 143 149 147 137 136 144 118 136 134 117 73 49 60 75 83 93 98 104 111 112 105
40 27 30 69 92 101 106 115 126 120 106 102 98 93 92 93 92 94 113 141 140 139 157 134 139 137 129 135 113 50 65 80 85 82 90 103 119 121
49 29 41 72 89 93 98 110 114 109 105 103 99 96 97 93 87 84 86 79 76 114 145 139 138 151 138 137 156 144 75 81 100 96 86 89 91 99
51 60 68 74 80 84 97 103 104 105 108 108 106 94 84 96 97 90 81 82 76 73 77 93 129 138 134 144 151 154 161 175 154 133 119 114 119 104
46 56 66 69 68 70 77 76 79 98 111 113 111 97 86 94 96 100 104 97 86 59 41 57 109 128 123 120 141 156 165 170 172 174 160 204 230 220
59 49 49 54 61 59 62 66 73 88 97 102 112 112 107 104 96 94 103 93 99 109 66 41 64 78 85 123 133 152 157 161 172 164 158 231 261 246
86 77 73 79 96 102 104 87 78 98 108 117 120 125 130 128 117 95 91 110 119 123 122 122 108 83 70 48 78 156 159 163 164 164 169 203 266 263
103 121 133 143 145 141 139 136 137 131 128 134 136 139 136 133 128 127 121 116 120 126 133 138 125 119 126 198 304 170 167 163 156 172 199 208 239 263
165 187 192 189 181 172 166 160 151 141 136 144 148 151 151 146 146 151 152 148 145 144 147 155 169 166 173 188 197 200 192 173 174 189 204 224 262 279
219 215 208 199 194 187 180 173 168 166 163 159 164 165 163 156 160 165 164 162 155 161 177 196 199 153 126 110 112 261 244 218 207 192 182 196 263 294
220 220 218 209 201 193 186 178 174 174 174 176 178 176 174 172 173 174 174 175 182 179 177 159 137 131 143 170 198 225 251 257 241 233 224 213 193 215
219 215 214 210 204 194 188 188 188 190 188 186 184 182 177 179 181 178 181 181 171 168 161 160 161 168 179 188 197 212 224 228 233 249 253 241 240 249
Height
1488 1491 1493 1496 1499 1502 1505 1508 1512 1514 1516 1519 1522 1524 1527 1530 1532 1535 1537 1539 1541 1543 1545 1546 1548 1549 1551 1552 1553 1554 1555 1555 1555 1556 1556 1556 1556 1555
1485 1487 1489 1492 1495 1498 1500 1504 1507 1510 1512 1515 1518 1521 1523 1526 1528 1531 1533 1535 1537 1539 1541 1543 1544 1546 1548 1549 1550 1551 1552 1553 1553 1553 1553 1553 1553 1553
1482 1484 1486 1489 1491 1494 1496 1499 1502 1505 1508 1511 1514 1517 1519 1522 1524 1527 1529 1531 1533 1535 1537 1539 1541 1543 1544 1546 1547 1548 1549 1550 1550 1550 1551 1551 1550 1550
1479 1481 1483 1486 1488 1491 1493 1495 1498 1501 1504 1507 1510 1513 1516 1518 1521 1523 1526 1528 1530 1532 1534 1536 1538 1540 1541 1543 1544 1545 1546 1547 1547 1548 1548 1548 1548 1547
1477 1479 1481 1483 1486 1488 1490 1492 1495 1497 1500 1503 1506 1509 1512 1515 1518 1520 1523 1525 1527 1529 1531 1533 1535 1537 1538 1540 1541 1542 1543 1544 1544 1545 1545 1545 1545 1545
1475 1477 1479 1481 1484 1486 1488 1490 1492 1494 1497 1500 1503 1506 1509 1512 1515 1517 1520 1522 1525 1527 1529 1531 1533 1535 1536 1537 1539 1540 1540 1541 1542 1542 1543 1543 1543 1542
1475 1476 1478 1480 1482 1484 1485 1487 1489 1492 1494 1497 1500 1503 1506 1508 1511 1514 1517 1520 1523 1525 1527 1529 1531 1533 1534 1535 1537 1538 1539 1539 1540 1540 1541 1541 1541 1540
1475 1476 1477 1479 1481 1482 1484 1486 1488 1490 1493 1495 1498 1500 1503 1506 1509 1512 1515 1518 1521 1524 1526 1528 1530 1531 1533 1534 1535 1536 1537 1538 1538 1539 1539 1539 1539 1539
1476 1477 1478 1479 1481 1482 1483 1485 1487 1489 1492 1495 1496 1498 1501 1504 1507 1510 1514 1517 1519 1522 1525 1527 1529 1531 1532 1533 1534 1535 1536 1537 1538 1538 1538 1538 1538 1537
1477 1478 1479 1480 1481 1482 1484 1485 1487 1489 1491 1494 1496 1498 1501 1504 1507 1510 1512 1516 1519 1522 1525 1526 1528 1530 1531 1533 1534 1535 1536 1536 1537 1537 1537 1537 1537 1537
1479 1479 1480 1481 1482 1483 1484 1486 1488 1490 1492 1494 1497 1499 1501 1503 1506 1509 1511 1514 1517 1520 1523 1525 1527 1529 1531 1532 1533 1535 1535 1536 1536 1536 1536 1536 1536 1536
1481 1481 1482 1482 1483 1484 1486 1487 1489 1491 1493 1495 1497 1499 1501 1503 1506 1508 1511 1513 1515 1519 1521 1524 1526 1528 1530 1532 1533 1534 1535 1535 1535 1536 1535 1535 1535 1535
1483 1483 1484 1485 1485 1486 1488 1489 1490 1492 1494 1496 1498 1500 1502 1504 1506 1508 1510 1513 1515 1517 1520 1522 1525 1527 1529 1530 1532 1533 1534 1535 1535 1535 1535 1535 1534 1534
1486 1487 1487 1487 1488 1489 1490 1491 1493 1495 1496 1498 1499 1501 1502 1504 1506 1508 1511 1513 1516 1518 1520 1522 1524 1526 1528 1529 1531 1532 1533 1534 1534 1534 1534 1534 1534 1533
1489 1489 1490 1490 1491 1491 1492 1493 1495 1496 1497 1499 1500 1502 1504 1505 1507 1509 1512 1514 1516 1518 1519 1522 1523 1525 1527 1528 1529 1530 1531 1532 1533 1533 1533 1533 1533 1532
1492 1492 1492 1493 1493 1494 1494 1495 1496 1497 1499 1500 1501 1503 1505 1506 1508 1510 1512 1514 1516 1518 1519 1521 1523 1525 1526 1527 1528 1529 1530 1531 1531 1531 1531 1531 1531 1531
1494 1494 1494 1495 1495 1495 1496 1497 1498 1499 1500 1501 1503 1504 1506 1507 1509 1511 1513 1514 1516 1517 1519 1520 1522 1523 1525 1526 1527 1527 1528 1529 1529 1529 1529 1529 1530 1529
1495 1495 1495 1496 1496 1497 1497 1498 1499 1500 1501 1502 1504 1505 1506 1508 1509 1511 1513 1514 1516 1517 1518 1520 1521 1522 1524 1524 1526 1526 1526 1527 1527 1527 1527 1527 1527 1528
1496 1496 1496 1497 1497 1497 1498 1499 1500 1501 1502 1503 1504 1505 1507 1508 1509 1511 1512 1514 1515 1516 1518 1519 1520 1521 1522 1523 1523 1524 1525 1525 1525 1525 1525 1525 1525 1525
1495 1496 1496 1496 1497 1497 1498 1499 1500 1500 1501 1502 1504 1505 1506 1507 1509 1510 1512 1513 1514 1515 1516 1517 1518 1519 1520 1521 1522 1522 1522 1523 1523 1523 1523 1523 1523 1523
1494 1494 1494 1495 1495 1496 1497 1498 1498 1499 1500 1501 1502 1504 1505 1506 1507 1509 1510 1511 1513 1514 1515 1516 1517 1518 1518 1519 1520 1520 1520 1520 1521 1520 1521 1520 1520 1520
1491 1491 1492 1493 1493 1494 1495 1495 1496 1497 1498 1499 1500 1501 1503 1504 1505 1507 1508 1509 1510 1512 1513 1514 1515 1515 1516 1517 1517 1517 1518 1518 1518 1518 1518 1518 1518 1517
1488 1488 1489 1489 1490 1491 1491 1492 1493 1494 1495 1496 1498 1499 1500 1501 1503 1504 1505 1507 1508 1509 1510 1511 1512 1513 1513 1514 1514 1514 1515 1515 1515 1515 1515 1515 1515 1514